Regional Weather Roundup
Issued by NWS

Home | Current Version | Previous Version | Text Only | Print | Product List | Glossary On
Versions: 1 2 3 4 5 6 7 8 9 10 11 12 13 14 15 16 17 18 19 20 21 22 23 24 25 26 27 28 29 30 31 32 33 34 35 36 37 38 39 40 41 42 43 44 45 46 47 48 49 50
000
ASUS44 KMEG 220310
RWRTN
TENNESSEE HOURLY STATE WEATHER ROUNDUP
NATIONAL WEATHER SERVICE MEMPHIS TN
900 PM CST SAT JAN 21 2017

TNZ002-004-019-021-049-052-054-088>092-220400-
WEST TENNESSEE

CITY           SKY/WX    TMP DP  RH WIND       PRES   REMARKS
MEMPHIS INTL   CLOUDY    63  53  70 E9        29.51F
NWS MEMPHIS      N/A     62 N/A N/A MISG        N/A
JACKSON        CLOUDY    61  53  75 CALM      29.57F
DYERSBURG      PTCLDY    61  48  63 S5        29.56S
UNION CITY     CLEAR     61  50  67 CALM      29.56S
PARIS          CLEAR     57  50  77 CALM      29.59S
HUNTINGDON     CLEAR     59  52  77 SE5       29.58S
$$

TNZ008-025-027-028-033-062-065-066-220400-
NORTH MIDDLE TENNESSEE

CITY           SKY/WX    TMP DP  RH WIND       PRES   REMARKS
NASHVILLE      CLOUDY    59  49  69 SE6       29.62F
PORTLAND       PTCLDY    57  50  77 SE5       29.64F
CLARKSVILLE    CLOUDY    58  48  69 E6        29.60F
SMYRNA         MOCLDY    55  51  86 E3        29.63F
GALLATIN       MOCLDY    55  52  88 E5        29.66F
CROSSVILLE     PTCLDY    48  46  93 CALM      29.68S
$$

TNZ061-075-076-078-094-096-097-220400-
SOUTH MIDDLE TENNESSEE

CITY           SKY/WX    TMP DP  RH WIND       PRES   REMARKS
TULLAHOMA      CLEAR     52  48  87 E3        29.65F
WINCHESTER     CLEAR     52  50  93 CALM      29.66S
MCMINNVILLE    CLEAR     52  52 100 CALM      29.66R
COLUMBIA       CLEAR     57  57 100 CALM      29.60F
SHELBYVILLE    CLEAR     54  52  94 E5        29.64F
$$

TNZ017-018-042-046-047-220400-
NORTHEAST TENNESSEE

CITY           SKY/WX    TMP DP  RH WIND       PRES   REMARKS
TRI CITIES     CLOUDY    52  50  93 CALM      29.67S
ELIZABETHTON   CLOUDY    54  50  87 CALM      29.67R
$$

TNZ012-013-036-069-073-074-220400-
CENTRAL EAST TENNESSEE

CITY           SKY/WX    TMP DP  RH WIND       PRES   REMARKS
KNOXVILLE      CLOUDY    52  49  89 E3        29.65F
OAK RIDGE      CLOUDY    51  49  92 CALM      29.67F
GATLINBURG     CLEAR     48  48 100 NE3       29.66F
MORRISTOWN     PTCLDY    52  52 100 S3        29.66S
JACKSBORO      FOG       46  46 100 CALM      29.70S VSB 3/4
$$

TNZ083-085-099-220400-
SOUTHEAST TENNESSEE

CITY           SKY/WX    TMP DP  RH WIND       PRES   REMARKS
CHATTANOOGA    MOCLDY    58  53  84 CALM      29.66R
$$

SKY/WX REPORTED AS FAIR MEANS FEW OR NO CLOUDS BELOW
12 THOUSAND FEET.





USA.gov is the U.S. government's official web portal to all federal, state and local government web resources and services.